Location: Newark
(40.3500°N, 15.2333°E)
Time: 18:50:07
(UTC+00:00)

Vanguard 1 - Pass Details

Date: 02 February 2020
Orbit: 650 x 3833 km, 34.2° (Epoch: 16 February)

Event Time Altitude Azimuth Distance (km) Brightness Sun altitude
Rises 18:00:57 0° 265° (W) 2,957 14.2 -19.9°
Reaches altitude 10° 18:03:40 10° 246° (WSW) 2,069 12.8 -20.4°
Maximum altitude 18:06:57 19° 199° (SSW) 1,656 11.5 -21.0°
Drops below altitude 10° 18:10:50 10° 153° (SSE) 2,504 11.9 -21.7°
Enters shadow 18:10:56 10° 152° (SSE) 2,540 12.0 -21.7°
Sets 18:14:34 0° 137° (SE) 3,836 - -22.4°
